Regional Weather Roundup
Issued by NWS

Home | Current Version | Previous Version | Graphics & Text | Print | Product List | Glossary On
Versions: 1 2 3 4 5 6 7 8 9 10 11 12 13 14 15 16 17 18 19 20 21 22 23 24 25 26 27 28 29 30 31 32 33 34 35 36 37 38 39 40 41 42 43 44 45 46 47 48 49 50
000
ASUS43 KMKX 011011
RWRWI

WISCONSIN REGIONAL WEATHER ROUNDUP
NATIONAL WEATHER SERVICE MILWAUKEE/SULLIVAN WI
500 AM CDT SAT AUG 01 2015

NOTE: "FAIR" INDICATES FEW OR NO CLOUDS BELOW 12,000 FEET WITH NO
SIGNIFICANT WEATHER AND/OR OBSTRUCTIONS TO VISIBILITY.

WIZ001-002-006>008-014>016-023>028-011100-
NORTHWEST WISCONSIN

CITY           SKY/WX    TMP DP  RH WIND       PRES   REMARKS
SUPERIOR ARPT  CLEAR     54  50  87 W3        29.94S
ASHLAND        CLEAR     55  50  83 W5        29.92S
HAYWARD        CLEAR     49  47  93 SW3       29.96S
SIREN          CLEAR     52  49  88 CALM      29.97S
CUMBERLAND     PTCLDY    52  50  93 CALM      29.98S
RICE LAKE      MOCLDY    52  51  95 CALM      29.99S
CHETEK         CLOUDY    56  54  94 CALM      29.97F
LADYSMITH      CLEAR     56  51  81 CALM      29.98S
EAU CLAIRE     MOCLDY    61  55  81 SW3       29.97S
MENOMONIE      MOCLDY    64  57  80 CALM      29.98S
NEW RICHMOND   PTCLDY    59  57  94 CALM      29.98F
OSCEOLA        MOCLDY    61  61 100 CALM      29.99F
$$

WIZ003>005-009-010-017-018-011100-
NORTH CENTRAL WISCONSIN

CITY           SKY/WX    TMP DP  RH WIND       PRES   REMARKS
MANITOWISH WTR CLEAR     46  46 100 W3        29.92F
ARBOR VITAE    CLEAR     57  53  88 CALM      29.93S
WOODRUFF       CLEAR     57  53  88 CALM      29.93S
RHINELANDER    CLEAR     53  50  89 W9        29.94S
EAGLE RIVER    CLEAR     51  51 100 W3        29.92S
LAND O LAKES   CLEAR     53  53 100 W3        29.92F
PHILLIPS       CLEAR     53  50  90 CALM      29.95S
TOMAHAWK       CLEAR     50  48  95 W5        29.95S
MEDFORD        CLEAR     54  51  87 W5        29.96S
MERRILL        NOT AVBL
$$

WIZ029-030-035-036-043>047-011100-
CENTRAL WISCONSIN

CITY           SKY/WX    TMP DP  RH WIND       PRES   REMARKS
WAUSAU         CLEAR     59  52  77 NW10      29.94S
MOSINEE        CLEAR     55  52  88 W7        29.96F
MARSHFIELD     PTCLDY    57  50  77 W6        29.97S
STEVENS POINT  CLEAR     59  51  75 CALM      29.96S
WAUPACA        CLEAR     62  53  71 W6        29.95S
WAUTOMA        CLEAR     55  52  90 CALM      29.96F
WISC RAPIDS    PTCLDY    57  50  77 W5        29.97F
CAMP DOUGLAS   CLEAR     55  55 100 W6        29.96F
$$

WIZ011>013-019>022-031-037>040-048>050-011100-
NORTHEAST WISCONSIN

CITY           SKY/WX    TMP DP  RH WIND       PRES   REMARKS
ANTIGO         CLEAR     52  51  96 W5        29.94S
SHAWANO        CLEAR     60  54  80 W7        29.92S
OCONTO         CLEAR     57  57  99 W6        29.89S
STURGEON BAY   PTCLDY    61  54  77 W6        29.91S
GREEN BAY      CLEAR     58  54  86 W8        29.92S
MANITOWOC      CLEAR     63  55  75 MISG      29.92S
APPLETON       CLEAR     55  50  82 W9        29.94S
CLINTONVILLE   CLEAR     59  52  77 W7        29.92S
OSHKOSH        CLEAR     61  51  70 W6        29.94S
$$

WIZ032>034-041-042-053>061-011100-
SOUTHWEST WISCONSIN

CITY           SKY/WX    TMP DP  RH WIND       PRES   REMARKS
LA CROSSE      MOCLDY    65  58  78 NE5       29.98S
SPARTA         MOCLDY    52  50  93 CALM      29.99S
VIROQUA        PTCLDY    60  57  88 W5        30.00F
BOSCOBEL       MOCLDY    58  56  93 CALM      29.99F
PRAIRIE DU CHI CLEAR     59  56  88 CALM      30.00S
PLATTEVILLE    CLEAR     60  58  94 W3        30.01S
$$

WIZ056-057-062-063-064-067-068-011100-
SOUTH CENTRAL WISCONSIN

CITY           SKY/WX    TMP DP  RH WIND       PRES   REMARKS
REEDSBURG      CLEAR     54  53  95 CALM      29.97F
BARABOO/DELLS  CLEAR     57  51  81 CALM      29.97F
LONE ROCK      CLEAR     53  50  89 CALM      30.00S
MINERAL POINT  PTCLDY    61  55  82 W5        30.00F
MADISON        CLEAR     62  54  74 VRB3      29.97F
MIDDLETON      CLEAR     61  54  76 CALM      29.98F
WATERTOWN      CLEAR     55  55 100 CALM      29.96S
MONROE         CLEAR     61  55  82 W12       30.00S
JANESVILLE     PTCLDY    59  52  77 W3        29.98F
$$

WIZ051-052-058>065-066-070>072-011100-
SOUTHEAST WISCONSIN

CITY           SKY/WX    TMP DP  RH WIND       PRES   REMARKS
MILWAUKEE      CLEAR     66  50  56 W7        29.96R
WAUKESHA       CLEAR     59  50  72 W6        29.98S
MILWAUKEE/TIMM CLEAR     61  48  63 W6        29.97S
RACINE         CLEAR     62  51  67 W7        29.98S
BURLINGTON     CLEAR     57  50  79 CALM      29.97S
KENOSHA        CLEAR     58  51  78 W7        29.97S
FOND DU LAC    PTCLDY    60  52  74 SW7       29.95S
SHEBOYGAN      CLEAR     61  53  75 W8        29.93S
WEST BEND      CLEAR     61  50  67 W6        29.95F
JUNEAU         CLEAR     57  51  81 CALM      29.97S
$$

LSZ147-162-011100-
LAKE SUPERIOR

STATION/POSITION TIME  TEMP    WIND        PRES    WAVE
                       AIR SEA DIR/SP/G            HT/PER
                 (UTC) (F)     (DEG/KT/KT) (MB)    (FT/S)
W MID LAKE BUOY  0950   57 53  260/ 12/ 14 1010.9S   1/ 3
DEVILS ISLAND    1000   58     250/ 15/ 17 1012.4F
PORT WING        0900   62     230/  9/ 11 1013.5R
SAXON HARBOR     0900   59                 1012.2
$$

LMZ867-665-643>646-011100-
LAKE MICHIGAN

STATION/POSITION TIME  TEMP    WIND        PRES    WAVE
                       AIR SEA DIR/SP/G            HT/PER
                 (UTC) (F)     (DEG/KT/KT) (MB)    (FT/S)
CHAMBERS ISLAND  0900   65     230/  5/ 10 1011.5F
S GREEN BAY BUOY 0900   63 69  270/  8/ 10 1013.6S
N MID LAKE BUOY  0950   66 68  270/ 16/ 17 1010.3F   2/ 4
NORTHPORT PIER   0900   67     290/  8/ 12 1011.2F
SISTER BAY       0914   68     300/ 16/ 18   N/A
ALGOMA LAKESHORE 0942             CALM       N/A
KEWAUNEE LAKESHO 0900   63     290/  5/  7 1011.8F
SHEBOYGAN LAKESH 1000   65     260/ 11/ 12 1013.4S
PORT WASHINGTON  0900   66     280/  7/ 10 1014.6S
ATWATER BUOY     1000   67 66  260/ 12/ 14 1015.3F
MILWAUKEE LAKESH 0900   69     290/  9/ 13   N/A
KENOSHA   LAKESH 1000   65     270/  8/ 11 1014.2S
$$

TC  - TEMPERATURE IN CELSIUS
VSB - VISIBILITY IN STATUTE MILES
WCI - WIND CHILL INDEX
HX  - HEAT INDEX



USA.gov is the U.S. government's official web portal to all federal, state and local government web resources and services.